When you browse on this site, cookies collect data to enhance your experience and personalize the content and advertising you see.
Visit our Privacy Policy to learn more. By continuing to use the site, you agree to this use of cookies and data.
  • In Belgien
  • Länderverzeichnis
  • Für 7 Tage
  • Wassertemperatur
  • Satellitenkarten
  • Wetterkarte
  • Widgets
  • user-avatar
    Anmelden

    Stündliche Wetter Trubchevsk

    Heute, 25 Mai, Samstag

    Zeit Temperatur Niederschläge Wind Luftdruck Luftfeuchtigkeit
    00:00 +16°C° 0.6 mm 3 m/S 743 mmHg 96%
    01:00 +16°C° 0.6 mm 3 m/S 743 mmHg 97%
    02:00 +16°C° 0.6 mm 3 m/S 743 mmHg 97%
    03:00 +16°C° 0.3 mm 3 m/S 743 mmHg 97%
    04:00 +16°C° 0.3 mm 2 m/S 742 mmHg 97%
    05:00 +16°C° 0.3 mm 2 m/S 742 mmHg 97%
    06:00 +16°C° 0.4 mm 2 m/S 742 mmHg 96%
    07:00 +17°C° 0.4 mm 2 m/S 742 mmHg 94%
    08:00 +17°C° 0.4 mm 2 m/S 742 mmHg 93%
    09:00 +18°C° 0 mm 3 m/S 742 mmHg 88%
    10:00 +19°C° 0 mm 3 m/S 741 mmHg 83%
    11:00 +20°C° 0 mm 3 m/S 741 mmHg 78%
    12:00 +21°C° 1 mm 3 m/S 741 mmHg 80%
    13:00 +21°C° 1 mm 3 m/S 741 mmHg 81%
    14:00 +21°C° 1 mm 3 m/S 741 mmHg 82%
    15:00 +21°C° 0.2 mm 2 m/S 740 mmHg 80%
    16:00 +22°C° 0.2 mm 1 m/S 740 mmHg 77%
    17:00 +22°C° 0.2 mm 1 m/S 740 mmHg 75%
    18:00 +21°C° 0.5 mm 1 m/S 740 mmHg 80%
    19:00 +19°C° 0.5 mm 1 m/S 740 mmHg 85%
    20:00 +18°C° 0.5 mm 1 m/S 740 mmHg 89%
    21:00 +16°C° 0 mm 1 m/S 740 mmHg 91%
    22:00 +16°C° 0 mm 1 m/S 739 mmHg 92%
    23:00 +15°C° 0 mm 1 m/S 739 mmHg 93%

    Morgen, 26 Mai, Sonntag

    Zeit Temperatur Niederschläge Wind Luftdruck Luftfeuchtigkeit
    00:00 +15°C° 0 mm 1 m/S 740 mmHg 93%
    01:00 +15°C° 0 mm 1 m/S 740 mmHg 94%
    02:00 +14°C° 0 mm 1 m/S 740 mmHg 94%
    03:00 +14°C° 0 mm 1 m/S 740 mmHg 94%
    04:00 +14°C° 0 mm 2 m/S 740 mmHg 95%
    05:00 +15°C° 0 mm 2 m/S 740 mmHg 95%
    06:00 +16°C° 0 mm 2 m/S 740 mmHg 90%
    07:00 +18°C° 0 mm 3 m/S 741 mmHg 84%
    08:00 +19°C° 0 mm 3 m/S 741 mmHg 78%
    09:00 +20°C° 0 mm 3 m/S 741 mmHg 72%
    10:00 +21°C° 0 mm 4 m/S 741 mmHg 65%
    11:00 +23°C° 0 mm 4 m/S 741 mmHg 58%
    12:00 +22°C° 0.3 mm 4 m/S 741 mmHg 61%
    13:00 +22°C° 0.3 mm 5 m/S 741 mmHg 63%
    14:00 +22°C° 0.3 mm 5 m/S 741 mmHg 66%
    15:00 +22°C° 0.1 mm 5 m/S 741 mmHg 65%
    16:00 +21°C° 0.1 mm 5 m/S 741 mmHg 64%
    17:00 +21°C° 0.1 mm 4 m/S 741 mmHg 63%
    18:00 +19°C° 0 mm 4 m/S 742 mmHg 69%
    19:00 +17°C° 0 mm 3 m/S 742 mmHg 74%
    20:00 +15°C° 0 mm 2 m/S 743 mmHg 79%
    21:00 +14°C° 0 mm 2 m/S 743 mmHg 81%
    22:00 +14°C° 0 mm 2 m/S 743 mmHg 82%
    23:00 +13°C° 0 mm 2 m/S 743 mmHg 84%

    übermorgen, 27 Mai, Montag

    Zeit Temperatur Niederschläge Wind Luftdruck Luftfeuchtigkeit
    00:00 +13°C° 0 mm 2 m/S 744 mmHg 85%
    01:00 +12°C° 0 mm 2 m/S 744 mmHg 86%
    02:00 +12°C° 0 mm 2 m/S 744 mmHg 88%
    03:00 +12°C° 0 mm 2 m/S 744 mmHg 88%
    04:00 +13°C° 0 mm 2 m/S 745 mmHg 88%
    05:00 +13°C° 0 mm 2 m/S 745 mmHg 88%
    06:00 +15°C° 0 mm 2 m/S 745 mmHg 81%
    07:00 +17°C° 0 mm 3 m/S 746 mmHg 74%
    08:00 +19°C° 0 mm 3 m/S 746 mmHg 67%
    09:00 +20°C° 0 mm 3 m/S 746 mmHg 63%
    10:00 +21°C° 0 mm 4 m/S 746 mmHg 60%
    11:00 +22°C° 0 mm 4 m/S 746 mmHg 56%
    12:00 +22°C° 0 mm 4 m/S 746 mmHg 55%
    13:00 +23°C° 0 mm 4 m/S 746 mmHg 55%
    14:00 +23°C° 0 mm 4 m/S 746 mmHg 55%
    15:00 +23°C° 0 mm 4 m/S 746 mmHg 57%
    16:00 +24°C° 0 mm 3 m/S 746 mmHg 60%
    17:00 +24°C° 0 mm 3 m/S 746 mmHg 63%
    18:00 +21°C° 0 mm 2 m/S 746 mmHg 69%
    19:00 +20°C° 0 mm 2 m/S 747 mmHg 75%
    20:00 +18°C° 0 mm 2 m/S 747 mmHg 82%
    21:00 +17°C° 0 mm 2 m/S 747 mmHg 86%
    22:00 +17°C° 0 mm 2 m/S 747 mmHg 90%
    23:00 +16°C° 0 mm 2 m/S 747 mmHg 95%

    28 Mai, Dienstag

    Zeit Temperatur Niederschläge Wind Luftdruck Luftfeuchtigkeit
    00:00 +16°C° 0.4 mm 2 m/S 747 mmHg 95%
    01:00 +17°C° 0.4 mm 3 m/S 747 mmHg 96%
    02:00 +17°C° 0.4 mm 3 m/S 747 mmHg 97%
    03:00 +17°C° 0.1 mm 3 m/S 747 mmHg 97%
    04:00 +17°C° 0.1 mm 3 m/S 747 mmHg 97%
    05:00 +17°C° 0.1 mm 3 m/S 747 mmHg 97%
    06:00 +19°C° 0 mm 3 m/S 747 mmHg 92%
    07:00 +20°C° 0 mm 3 m/S 748 mmHg 88%
    08:00 +22°C° 0 mm 3 m/S 748 mmHg 83%
    09:00 +23°C° 0.6 mm 4 m/S 748 mmHg 79%
    10:00 +25°C° 0.6 mm 4 m/S 748 mmHg 75%
    11:00 +26°C° 0.6 mm 5 m/S 748 mmHg 71%
    12:00 +26°C° 0.3 mm 5 m/S 748 mmHg 66%
    13:00 +27°C° 0.3 mm 5 m/S 748 mmHg 61%
    14:00 +28°C° 0.3 mm 5 m/S 748 mmHg 56%
    15:00 +27°C° 0 mm 5 m/S 747 mmHg 59%
    16:00 +27°C° 0 mm 5 m/S 747 mmHg 62%
    17:00 +26°C° 0 mm 4 m/S 747 mmHg 65%
    18:00 +23°C° 0 mm 4 m/S 747 mmHg 70%
    19:00 +22°C° 0 mm 4 m/S 747 mmHg 76%
    20:00 +20°C° 0 mm 3 m/S 747 mmHg 82%
    21:00 +20°C° 0 mm 3 m/S 747 mmHg 83%
    22:00 +19°C° 0 mm 3 m/S 747 mmHg 85%
    23:00 +19°C° 0 mm 3 m/S 747 mmHg 86%

    29 Mai, Mittwoch

    Zeit Temperatur Niederschläge Wind Luftdruck Luftfeuchtigkeit
    00:00 +19°C° 0 mm 3 m/S 747 mmHg 84%
    01:00 +19°C° 0 mm 4 m/S 748 mmHg 82%
    02:00 +19°C° 0 mm 4 m/S 748 mmHg 80%
    03:00 +18°C° 0 mm 4 m/S 748 mmHg 81%
    04:00 +18°C° 0 mm 4 m/S 748 mmHg 82%
    05:00 +18°C° 0 mm 4 m/S 747 mmHg 82%
    06:00 +19°C° 0 mm 4 m/S 748 mmHg 77%
    07:00 +20°C° 0 mm 5 m/S 748 mmHg 72%
    08:00 +22°C° 0 mm 5 m/S 748 mmHg 68%
    09:00 +23°C° 0 mm 5 m/S 748 mmHg 64%
    10:00 +24°C° 0 mm 6 m/S 748 mmHg 61%
    11:00 +27°C° 0 mm 6 m/S 748 mmHg 58%
    12:00 +27°C° 0 mm 6 m/S 748 mmHg 58%
    13:00 +28°C° 0 mm 6 m/S 747 mmHg 58%
    14:00 +28°C° 0 mm 6 m/S 747 mmHg 57%
    15:00 +28°C° 0 mm 6 m/S 747 mmHg 61%
    16:00 +28°C° 0 mm 5 m/S 747 mmHg 64%
    17:00 +27°C° 0 mm 5 m/S 747 mmHg 67%
    18:00 +26°C° 0 mm 4 m/S 747 mmHg 71%
    19:00 +25°C° 0 mm 4 m/S 747 mmHg 75%
    20:00 +24°C° 0 mm 3 m/S 747 mmHg 79%
    21:00 +24°C° 0 mm 3 m/S 747 mmHg 79%
    22:00 +22°C° 0 mm 3 m/S 747 mmHg 78%
    23:00 +22°C° 0 mm 3 m/S 747 mmHg 78%

    30 Mai, Donnerstag

    Zeit Temperatur Niederschläge Wind Luftdruck Luftfeuchtigkeit
    00:00 +22°C° 0 mm 4 m/S 747 mmHg 78%
    01:00 +21°C° 0 mm 4 m/S 747 mmHg 78%
    02:00 +21°C° 0 mm 4 m/S 747 mmHg 78%
    03:00 +21°C° 0 mm 4 m/S 747 mmHg 79%
    04:00 +20°C° 0 mm 4 m/S 747 mmHg 81%
    05:00 +20°C° 0 mm 4 m/S 747 mmHg 82%
    06:00 +21°C° 0 mm 4 m/S 747 mmHg 79%
    07:00 +22°C° 0 mm 4 m/S 747 mmHg 76%
    08:00 +23°C° 0 mm 4 m/S 747 mmHg 73%
    09:00 +25°C° 0 mm 4 m/S 747 mmHg 70%
    10:00 +26°C° 0 mm 4 m/S 747 mmHg 66%
    11:00 +27°C° 0 mm 4 m/S 747 mmHg 62%
    12:00 +28°C° 0 mm 4 m/S 747 mmHg 61%
    13:00 +28°C° 0 mm 4 m/S 747 mmHg 60%
    14:00 +29°C° 0 mm 4 m/S 747 mmHg 58%
    15:00 +28°C° 1 mm 3 m/S 747 mmHg 65%
    16:00 +27°C° 1 mm 3 m/S 747 mmHg 71%
    17:00 +26°C° 1 mm 2 m/S 747 mmHg 77%
    18:00 +25°C° 0.7 mm 2 m/S 747 mmHg 81%
    19:00 +23°C° 0.7 mm 1 m/S 747 mmHg 85%
    20:00 +22°C° 0.7 mm 1 m/S 747 mmHg 88%
    21:00 +21°C° 0 mm 1 m/S 747 mmHg 90%
    22:00 +21°C° 0 mm 1 m/S 747 mmHg 91%
    23:00 +21°C° 0 mm 1 m/S 747 mmHg 92%
    Mehr zeigen